timestamp,surface_pressure_avg,surface_temp_avg,battery_voltage,lat,long
2024-01-24 00:09:00+00:00,303.2013,1.8,11.53,47.84626,-54.09684
2024-01-24 00:19:00+00:00,296.248,1.8,11.53,47.84626,-54.09684
2024-01-24 00:29:00+00:00,291.823,1.8,11.53,47.84626,-54.09684
2024-01-24 00:39:00+00:00,288.578,1.84,11.53,47.84626,-54.09684
2024-01-24 00:49:00+00:00,284.048,1.88,11.53,47.84626,-54.09684
2024-01-24 00:59:00+00:00,276.2214,1.8,11.53,47.84626,-54.09684
2024-01-24 01:09:00+00:00,271.7964,1.75,11.53,47.84626,-54.09684
2024-01-24 01:19:00+00:00,266.0464,1.78,11.53,47.84626,-54.09684
2024-01-24 01:29:00+00:00,261.3748,1.8,11.53,47.84626,-54.09684
2024-01-24 01:39:00+00:00,255.9865,1.8,11.53,47.84626,-54.09684
2024-01-24 01:49:00+00:00,252.3481,1.8,11.53,47.84626,-54.09684
2024-01-24 01:59:00+00:00,244.4881,1.8,11.53,47.84626,-54.09684
2024-01-24 02:09:00+00:00,234.2181,1.7,11.53,47.84626,-54.09684
2024-01-24 07:19:00+00:00,266.6797,1.2,11.46,47.84626,-54.09684
2024-01-24 07:29:00+00:00,269.5581,1.25,11.46,47.84626,-54.09684
2024-01-24 07:39:00+00:00,279.2881,1.29,11.46,47.84626,-54.09684
2024-01-24 07:49:00+00:00,287.963,1.3,11.46,47.84626,-54.09684
2024-01-24 07:59:00+00:00,287.7531,1.25,11.46,47.84626,-54.09684
2024-01-24 08:09:00+00:00,288.2331,1.27,11.46,47.84626,-54.09684
2024-01-24 10:19:01+00:00,359.5279,1.2,11.46,47.84626,-54.09684
2024-01-24 10:29:01+00:00,357.7563,1.2,11.46,47.84626,-54.09684
2024-01-24 10:39:01+00:00,361.8279,1.2,11.46,47.84626,-54.09684
2024-01-24 10:49:01+00:00,366.2646,1.2,11.46,47.84626,-54.09684
2024-01-24 10:59:01+00:00,364.6862,1.2,11.46,47.84626,-54.09684
2024-01-24 11:09:01+00:00,366.8879,1.2,11.46,47.84626,-54.09684
2024-01-24 11:19:00+00:00,373.073,1.18,11.46,47.84626,-54.09684
2024-01-24 11:29:00+00:00,371.4778,1.12,11.46,47.84626,-54.09684
2024-01-24 11:39:00+00:00,365.773,1.19,11.46,47.84626,-54.09684
2024-01-24 11:49:00+00:00,368.4163,1.18,11.46,47.84626,-54.09684
2024-01-24 11:59:00+00:00,369.0579,1.1,11.46,47.84626,-54.09684
2024-01-24 12:09:00+00:00,359.9263,1.1,11.46,47.84626,-54.09684
2024-01-24 15:19:00+00:00,270.5964,1.1,12.41,47.84626,-54.09684
2024-01-24 15:29:00+00:00,261.8364,1.08,12.41,47.84626,-54.09684
2024-01-24 15:39:00+00:00,254.7864,1.09,12.41,47.84626,-54.09684
2024-01-24 15:49:00+00:00,249.8197,1.13,12.41,47.84626,-54.09684
2024-01-24 15:59:00+00:00,239.4464,1.1,12.41,47.84626,-54.09684
2024-01-24 16:09:00+00:00,230.7548,1.09,12.41,47.84626,-54.09684
2024-01-24 16:19:00+00:00,229.0981,1.1,12.41,47.84626,-54.09684
2024-01-24 16:29:00+00:00,225.2881,1.2,12.41,47.84626,-54.09684
2024-01-24 16:39:00+00:00,218.8031,1.2,12.41,47.84626,-54.09684
2024-01-24 16:49:00+00:00,218.2764,1.2,12.41,47.84626,-54.09684
2024-01-24 16:59:00+00:00,221.6131,1.3,12.41,47.84626,-54.09684
2024-01-24 17:09:00+00:00,219.8964,1.3,12.41,47.84626,-54.09684
2024-01-24 17:19:00+00:00,217.8447,1.3,12.33,47.84626,-54.09684
2024-01-24 17:29:00+00:00,221.8331,1.39,12.33,47.84626,-54.09684
2024-01-24 17:39:00+00:00,225.7081,1.43,12.33,47.84626,-54.09684
2024-01-24 17:49:00+00:00,221.3864,1.46,12.33,47.84626,-54.09684
2024-01-24 17:59:00+00:00,218.5598,1.41,12.33,47.84626,-54.09684
2024-01-24 18:09:00+00:00,225.0381,1.46,12.33,47.84626,-54.09684
2024-01-24 18:19:00+00:00,230.6347,1.5,12.25,47.84626,-54.09684
2024-01-24 18:29:00+00:00,228.7231,1.5,12.25,47.84626,-54.09684
2024-01-24 18:39:00+00:00,229.3197,1.5,12.25,47.84626,-54.09684
2024-01-24 18:49:00+00:00,236.4397,1.5,12.25,47.84626,-54.09684
2024-01-24 18:59:00+00:00,238.9897,1.5,12.25,47.84626,-54.09684
2024-01-24 19:09:00+00:00,236.6581,1.5,12.25,47.84626,-54.09684
2024-01-24 19:19:00+00:00,240.0081,1.5,12.09,47.84626,-54.09684
2024-01-24 19:29:00+00:00,246.2515,1.5,12.09,47.84626,-54.09684
2024-01-24 19:39:00+00:00,248.023,1.5,12.09,47.84626,-54.09684
2024-01-24 19:49:00+00:00,249.308,1.5,12.09,47.84626,-54.09684
2024-01-24 19:59:00+00:00,251.5648,1.5,12.09,47.84626,-54.09684
2024-01-24 20:09:00+00:00,256.7214,1.5,12.09,47.84626,-54.09684
2024-01-24 20:19:00+00:00,260.5698,1.5,11.77,47.84626,-54.09684
2024-01-24 20:29:00+00:00,266.8181,1.5,11.77,47.84626,-54.09684
2024-01-24 20:39:00+00:00,271.6514,1.5,11.77,47.84626,-54.09684
2024-01-24 20:49:00+00:00,278.5647,1.5,11.77,47.84626,-54.09684
2024-01-24 20:59:00+00:00,282.3581,1.53,11.77,47.84626,-54.09684
2024-01-24 21:09:00+00:00,286.9847,1.6,11.77,47.84626,-54.09684
2024-01-24 21:19:00+00:00,293.6097,1.62,11.77,47.84626,-54.09684
2024-01-24 21:29:00+00:00,301.4447,1.7,11.77,47.84626,-54.09684
2024-01-24 21:39:00+00:00,307.8513,1.7,11.77,47.84626,-54.09684
2024-01-24 21:49:00+00:00,312.4547,1.7,11.77,47.84626,-54.09684
2024-01-24 21:59:00+00:00,320.753,1.69,11.77,47.84626,-54.09684
2024-01-24 22:09:00+00:00,328.1297,1.69,11.77,47.84626,-54.09684
2024-01-24 22:19:00+00:00,329.5129,1.68,11.7,47.84626,-54.09684
2024-01-24 22:29:00+00:00,329.4846,1.69,11.7,47.84626,-54.09684
2024-01-24 22:39:00+00:00,334.5246,1.69,11.7,47.84626,-54.09684
2024-01-24 22:49:00+00:00,339.8362,1.64,11.7,47.84626,-54.09684
2024-01-24 22:59:00+00:00,339.7596,1.6,11.7,47.84626,-54.09684
2024-01-24 23:09:00+00:00,339.2946,1.6,11.7,47.84626,-54.09684
